Crestview, FL

9:09 AM CDT on October 21, 2017 (GMT -0500)
Sikes

Weather History for KCEW - May, 2014

Change the Weather History Date:

Sunday, May 25, 2014

  Actual Average Record
Temperature  
Mean Temperature 80 °F -  
Max Temperature 97 °F 85 °F 98 °F (2012)
Min Temperature 64 °F 63 °F 49 °F (1979)
Cooling Degree Days 14    
Growing Degree Days 30 (Base 50)    
Moisture  
Dew Point 66 °F    
Average Humidity 76    
Maximum Humidity 97    
Minimum Humidity 34    
Precipitation  
Precipitation 0.01 in - - ()
Sea Level Pressure  
Sea Level Pressure 30.09 in    
Wind  
Wind Speed 2 mph (ENE)    
Max Wind Speed 9 mph    
Max Gust Speed -    
Visibility 7 miles    
Events Rain , Thunderstorm    
Averages and records for this station are not official NWS values.
T = Trace of Precipitation, MM = Missing Value Source: NWS Daily Summary

Daily Weather History Graph

Daily Weather History Graph

Search for Another Location

Airport or City:

Trip Planner

Search our weather history database for the weather conditions in past years. The results will help you decide how hot, cold, wet, or windy it might be!

Date:

Astronomy

May. 25, 2014 Rise Set
Actual Time 5:45 AM CDT 7:40 PM CDT
Civil Twilight 5:18 AM CDT 8:07 PM CDT
Nautical Twilight 4:46 AM CDT 8:40 PM CDT
Astronomical Twilight 4:11 AM CDT 9:14 PM CDT
Moon 3:36 AM CDT (5/25) 4:51 PM CDT (5/25)
Length of Visible Light 14h 48m
Length of Day
13h 54m
Waning Crescent, 10% of the Moon is Illuminated
May 25
Waning Crescent
May 28
New
Jun 5
First Quarter
Jun 12
Full
Jun 19
Last Quarter

Hourly Weather History & Observations

Time (CDT) Temp. Heat Index Dew Point Humidity Pressure Visibility Wind Dir Wind Speed Gust Speed Precip Events Conditions
1:53 AM 71.1 °F - 66.9 °F 87% 30.07 in 9.0 mi Calm Calm - N/A   Clear
2:53 AM 68.0 °F - 66.0 °F 93% 30.06 in 4.0 mi Calm Calm - N/A   Clear
4:53 AM 66.9 °F - 64.0 °F 90% 30.06 in 4.0 mi Calm Calm - N/A   Clear
5:53 AM 64.9 °F - 63.0 °F 93% 30.08 in 2.5 mi Calm Calm - N/A   Clear
6:19 AM 66.0 °F - 63.0 °F 90% 30.08 in 4.0 mi Calm Calm - N/A   Clear
6:53 AM 70.0 °F - 66.9 °F 90% 30.09 in 3.0 mi Calm Calm - N/A   Clear
7:53 AM 78.1 °F - 69.1 °F 74% 30.10 in 8.0 mi NNW 4.6 mph - N/A   Clear
8:53 AM 84.0 °F 88.4 °F 70.0 °F 63% 30.11 in 9.0 mi Variable 3.5 mph - N/A   Clear
10:53 AM 91.9 °F 95.4 °F 66.9 °F 44% 30.09 in 10.0 mi NE 8.1 mph - N/A   Clear
11:53 AM 91.0 °F 93.0 °F 64.9 °F 42% 30.08 in 10.0 mi ENE 3.5 mph - N/A   Mostly Cloudy
12:53 PM 93.9 °F 95.6 °F 64.0 °F 37% 30.07 in 10.0 mi SE 4.6 mph - N/A   Clear
1:53 PM 93.9 °F 96.1 °F 64.9 °F 38% 30.06 in 10.0 mi ESE 5.8 mph - N/A   Mostly Cloudy
2:18 PM 95.0 °F 96.0 °F 63.0 °F 34% 30.06 in 10.0 mi ENE 5.8 mph - N/A Thunderstorm Scattered Clouds
2:25 PM 93.9 °F 95.2 °F 63.0 °F 36% 30.06 in 10.0 mi NE 4.6 mph - N/A Thunderstorm Thunderstorm
2:53 PM 87.1 °F 89.2 °F 66.0 °F 49% 30.05 in 10.0 mi SW 8.1 mph - 0.00 in Rain , Thunderstorm Light Thunderstorms and Rain
3:53 PM 73.9 °F - 68.0 °F 82% 30.07 in 10.0 mi NW 9.2 mph - 0.01 in Rain , Thunderstorm Light Thunderstorms and Rain
4:16 PM 73.9 °F - 66.9 °F 79% 30.08 in 9.0 mi NNW 6.9 mph - 0.00 in Thunderstorm Clear
4:27 PM 73.9 °F - 66.9 °F 79% 30.08 in 10.0 mi Calm Calm - 0.00 in   Partly Cloudy
4:53 PM 73.0 °F - 66.9 °F 81% 30.08 in 7.0 mi East 4.6 mph - 0.00 in Rain Light Rain
5:53 PM 75.9 °F - 68.0 °F 76% 30.05 in 10.0 mi Calm Calm - 0.00 in   Scattered Clouds
6:53 PM 75.9 °F - 70.0 °F 82% 30.06 in 10.0 mi SE 3.5 mph - N/A   Clear
7:53 PM 73.9 °F - 69.1 °F 85% 30.07 in 9.0 mi Calm Calm - N/A   Clear
8:53 PM 71.1 °F - 68.0 °F 90% 30.09 in 5.0 mi NNW 3.5 mph - N/A   Clear
9:53 PM 70.0 °F - 68.0 °F 93% 30.12 in 8.0 mi ENE 3.5 mph - N/A   Clear
10:53 PM 70.0 °F - 66.9 °F 90% 30.11 in 6.0 mi Calm Calm - N/A   Clear
11:04 PM 68.0 °F - 66.0 °F 93% 30.13 in 1.8 mi Calm Calm - N/A   Clear
11:13 PM 68.0 °F - 66.0 °F 93% 30.13 in 3.0 mi Calm Calm - N/A   Clear
11:31 PM 68.0 °F - 66.0 °F 93% 30.12 in 1.5 mi Calm Calm - N/A   Clear
11:39 PM 66.9 °F - 66.0 °F 97% 30.12 in 0.8 mi Calm Calm - N/A   Clear
11:43 PM 66.9 °F - 66.0 °F 97% 30.13 in 3.0 mi Calm Calm - N/A   Clear
11:53 PM 68.0 °F - 66.0 °F 93% 30.11 in 3.0 mi Calm Calm - N/A   Clear